Weather History for Rutland, VT

Change the Weather History Date:

Sunday, May 5, 2013

  Actual Average Record
Temperature  
Mean Temperature 57 °F -  
Max Temperature 73 °F - 85 °F (1949)
Min Temperature 41 °F - 26 °F (1952)
Degree Days  
Heating Degree Days 8    
Month to date heating degree days 32  
Since 1 July heating degree days 6592  
Cooling Degree Days 0    
Month to date cooling degree days 0  
Year to date cooling degree days 0  
Growing Degree Days 7 (Base 50)    
Moisture  
Dew Point 28 °F    
Average Humidity 37    
Maximum Humidity 55    
Minimum Humidity 19    
Precipitation  
Precipitation 0.00 in - 0.46 in (1990)
Month to date precipitation 0.00  
Year to date precipitation 4.51  
Sea Level Pressure  
Sea Level Pressure 30.22 in    
Wind  
Wind Speed 8 mph (SE)    
Max Wind Speed 16 mph    
Max Gust Speed 23 mph    
Visibility 10 miles    
Events      
T = Trace of Precipitation, MM = Missing Value Source: NWS Daily Summary

Daily Weather History Graph

Daily Weather History Graph

Search for Another Location

Airport:

Trip Planner

Search our weather history database for the weather conditions in past years. The results will help you decide how hot, cold, wet, or windy it might be!

Date:

Astronomy

May. 05, 2013 Rise Set
Actual Time 5:38 AM EDT 7:58 PM EDT
Civil Twilight 5:06 AM EDT 8:30 PM EDT
Nautical Twilight 4:27 AM EDT 9:10 PM EDT
Astronomical Twilight 3:43 AM EDT 9:54 PM EDT
Moon 3:15 AM EDT (5/5) 3:48 PM EDT (5/5)
Length of Visible Light 15h 24m
Length of Day
14h 20m
Waning Crescent, 18% of the Moon is Illuminated
May 5
Waning Crescent
May 9
New
May 18
First Quarter
May 25
Full
May 31
Last Quarter

Hourly Weather History & Observations

Time (EDT) Temp. Windchill Dew Point Humidity Pressure Visibility Wind Dir Wind Speed Gust Speed Precip Events Conditions
12:15 AM 55.4 °F - 28.4 °F 36% 30.25 in 10.0 mi SE 12.7 mph - N/A   Clear
12:35 AM 53.6 °F - 28.4 °F 38% 30.25 in 10.0 mi SE 15.0 mph - N/A   Clear
12:55 AM 53.6 °F - 26.6 °F 35% 30.26 in 10.0 mi SE 10.4 mph - N/A   Clear
1:15 AM 53.6 °F - 24.8 °F 33% 30.26 in 10.0 mi SSE 11.5 mph - N/A   Clear
1:35 AM 51.8 °F - 24.8 °F 35% 30.26 in 10.0 mi SE 10.4 mph - N/A   Clear
1:55 AM 51.8 °F - 24.8 °F 35% 30.26 in 10.0 mi ESE 12.7 mph 16.1 mph N/A   Clear
2:15 AM 48.2 °F - 24.8 °F 40% 30.26 in 10.0 mi SE 12.7 mph - N/A   Clear
2:35 AM 48.2 °F - 24.8 °F 40% 30.27 in 10.0 mi ESE 12.7 mph 17.3 mph N/A   Clear
2:55 AM 48.2 °F - 24.8 °F 40% 30.27 in 10.0 mi ESE 9.2 mph - N/A   Clear
3:35 AM 46.4 °F 41.1 °F 26.6 °F 46% 30.27 in 10.0 mi SE 11.5 mph - N/A   Clear
3:55 AM 46.4 °F 41.5 °F 26.6 °F 46% 30.27 in 10.0 mi SE 10.4 mph - N/A   Clear
4:15 AM 44.6 °F 39.2 °F 26.6 °F 49% 30.27 in 10.0 mi SE 10.4 mph - N/A   Clear
4:35 AM 44.6 °F 40.2 °F 26.6 °F 49% 30.27 in 10.0 mi SE 8.1 mph - N/A   Clear
4:55 AM 44.6 °F 39.7 °F 26.6 °F 49% 30.27 in 10.0 mi SE 9.2 mph - N/A   Clear
5:15 AM 42.8 °F 37.5 °F 26.6 °F 53% 30.27 in 10.0 mi SE 9.2 mph - N/A   Clear
5:35 AM 42.8 °F 37.5 °F 26.6 °F 53% 30.28 in 10.0 mi SE 9.2 mph - N/A   Clear
5:55 AM 41.0 °F 35.8 °F 26.6 °F 57% 30.28 in 10.0 mi SE 8.1 mph - N/A   Clear
6:15 AM 41.0 °F 36.4 °F 26.6 °F 57% 30.28 in 10.0 mi SE 6.9 mph - N/A   Clear
6:35 AM 42.8 °F 36.6 °F 26.6 °F 53% 30.28 in 10.0 mi ESE 11.5 mph - N/A   Clear
6:55 AM 44.6 °F 41.4 °F 28.4 °F 53% 30.28 in 10.0 mi SE 5.8 mph - N/A   Clear
7:15 AM 44.6 °F - 26.6 °F 49% 30.28 in 10.0 mi Calm Calm - N/A   Clear
7:35 AM 46.4 °F 45.2 °F 28.4 °F 50% 30.29 in 10.0 mi SE 3.5 mph - N/A   Clear
7:55 AM 48.2 °F - 28.4 °F 46% 30.29 in 10.0 mi Calm Calm - N/A   Clear
8:15 AM 51.8 °F - 28.4 °F 41% 30.29 in 10.0 mi Calm Calm - N/A   Clear
8:35 AM 53.6 °F - 28.4 °F 38% 30.29 in 10.0 mi Calm Calm - N/A   Clear
8:55 AM 55.4 °F - 28.4 °F 36% 30.28 in 10.0 mi Calm Calm - N/A   Clear
9:15 AM 55.4 °F - 28.4 °F 36% 30.28 in 10.0 mi Calm Calm - N/A   Clear
9:35 AM 57.2 °F - 30.2 °F 36% 30.27 in 10.0 mi West 3.5 mph - N/A   Clear
9:55 AM 57.2 °F - 30.2 °F 36% 30.27 in 10.0 mi Calm Calm - N/A   Clear
10:15 AM 59.0 °F - 28.4 °F 31% 30.26 in 10.0 mi Calm Calm - N/A   Clear
10:35 AM 60.8 °F - 30.2 °F 31% 30.25 in 10.0 mi West 3.5 mph - N/A   Clear
10:55 AM 64.4 °F - 30.2 °F 28% 30.25 in 10.0 mi Calm Calm - N/A   Clear
11:15 AM 64.4 °F - 28.4 °F 26% 30.24 in 9.0 mi Calm Calm - N/A   Clear
11:35 AM 66.2 °F - 32.0 °F 28% 30.24 in 9.0 mi WNW 3.5 mph - N/A   Clear
11:55 AM 66.2 °F - 28.4 °F 24% 30.23 in 9.0 mi Calm Calm - N/A   Clear
12:15 PM 68.0 °F - 30.2 °F 24% 30.22 in 10.0 mi NW 4.6 mph - N/A   Clear
12:36 PM 69.8 °F - 30.2 °F 23% 30.21 in 10.0 mi West 4.6 mph - N/A   Clear
12:55 PM 69.8 °F - 33.8 °F 27% 30.20 in 8.0 mi WNW 5.8 mph - N/A   Clear
1:15 PM 71.6 °F - 32.0 °F 23% 30.19 in 10.0 mi NNE 3.5 mph - N/A   Clear
1:35 PM 71.6 °F - 33.8 °F 25% 30.18 in 10.0 mi West 4.6 mph - N/A   Clear
2:15 PM 73.4 °F - 30.2 °F 20% 30.17 in 10.0 mi ESE 3.5 mph - N/A   Clear
2:35 PM 73.4 °F - 30.2 °F 20% 30.17 in 10.0 mi SE 19.6 mph 25.3 mph N/A   Clear
2:55 PM 73.4 °F - 30.2 °F 20% 30.17 in 10.0 mi SSE 11.5 mph 20.7 mph N/A   Clear
3:15 PM 73.4 °F - 30.2 °F 20% 30.17 in 10.0 mi ESE 11.5 mph 20.7 mph N/A   Clear
3:35 PM 73.4 °F - 30.2 °F 20% 30.17 in 10.0 mi SE 16.1 mph 20.7 mph N/A   Clear
3:55 PM 73.4 °F - 28.4 °F 19% 30.16 in 10.0 mi ESE 16.1 mph 23.0 mph N/A   Clear
4:15 PM 73.4 °F - 28.4 °F 19% 30.16 in 10.0 mi SSE 11.5 mph 20.7 mph N/A   Clear
4:55 PM 73.4 °F - 28.4 °F 19% 30.15 in 10.0 mi SSE 10.4 mph 18.4 mph N/A   Clear
5:15 PM 73.4 °F - 26.6 °F 18% 30.15 in 10.0 mi SSE 11.5 mph - N/A   Clear
5:35 PM 73.4 °F - 26.6 °F 18% 30.15 in 10.0 mi SE 9.2 mph 16.1 mph N/A   Clear
5:55 PM 71.6 °F - 28.4 °F 20% 30.15 in 10.0 mi SE 11.5 mph 18.4 mph N/A   Clear
6:15 PM 71.6 °F - 28.4 °F 20% 30.15 in 10.0 mi SE 12.7 mph - N/A   Clear
6:35 PM 71.6 °F - 28.4 °F 20% 30.15 in 10.0 mi SE 13.8 mph - N/A   Clear
6:55 PM 71.6 °F - 26.6 °F 19% 30.15 in 10.0 mi ESE 12.7 mph 19.6 mph N/A   Clear
7:15 PM 69.8 °F - 26.6 °F 20% 30.16 in 10.0 mi SE 15.0 mph - N/A   Clear
7:35 PM 69.8 °F - 24.8 °F 18% 30.16 in 10.0 mi ESE 12.7 mph - N/A   Clear
8:15 PM 64.4 °F - 26.6 °F 24% 30.17 in 10.0 mi ESE 8.1 mph - N/A   Clear
8:35 PM 64.4 °F - 26.6 °F 24% 30.17 in 10.0 mi ESE 9.2 mph - N/A   Clear
8:55 PM 62.6 °F - 26.6 °F 26% 30.18 in 10.0 mi SE 9.2 mph - N/A   Clear
9:15 PM 64.4 °F - 24.8 °F 22% 30.19 in 10.0 mi SSE 5.8 mph - N/A   Clear
9:35 PM 62.6 °F - 24.8 °F 24% 30.19 in 10.0 mi SE 15.0 mph - N/A   Clear
9:55 PM 60.8 °F - 26.6 °F 27% 30.19 in 10.0 mi SE 10.4 mph - N/A   Clear
10:35 PM - - - N/A% 30.19 in 10.0 mi ESE 9.2 mph - N/A   Clear
10:55 PM 57.2 °F - 28.4 °F 33% 30.20 in 10.0 mi ESE 11.5 mph - N/A   Clear
11:15 PM 57.2 °F - 28.4 °F 33% 30.20 in 10.0 mi ESE 11.5 mph - N/A   Clear
11:35 PM 55.4 °F - 30.2 °F 38% 30.20 in 10.0 mi ESE 10.4 mph - N/A   Clear
11:55 PM 53.6 °F - 30.2 °F 41% 30.20 in 10.0 mi ESE 13.8 mph - N/A   Clear